Location: Unspecified
(0.0000°N, 0.0000°E)
Time: 18:57:21
(UTC+00:00)

Explorer 11/Cluster Stage 4 - Pass Details

Date: 27 November 2019
Orbit: 467 x 1259 km, 28.8° (Epoch: 05 December)

Event Time Altitude Azimuth Distance (km) Brightness Sun altitude
Rises 12:56:01 0° 256° (WSW) 2,885 9.8 63.1°
Reaches altitude 10° 12:58:44 10° 266° (W) 1,860 8.9 62.6°
Maximum altitude 13:02:25 29° 328° (NNW) 950 7.3 62.1°
Drops below altitude 10° 13:05:42 10° 30° (NNE) 1,644 8.1 61.5°
Sets 13:07:58 0° 42° (NE) 2,486 8.9 61.2°
